Weather History for El Paso, TX

Change the Weather History Date:

Thursday, June 20, 2013

  Actual Average Record
Temperature  
Mean Temperature 91 °F 83 °F  
Max Temperature 103 °F 96 °F 108 °F (1960)
Min Temperature 79 °F 69 °F 52 °F (1979)
Degree Days  
Heating Degree Days 0 0  
Month to date heating degree days 0 0  
Since 1 June heating degree days 0 0  
Since 1 July heating degree days 2219 2474  
Cooling Degree Days 26 18  
Month to date cooling degree days 423 321  
Year to date cooling degree days 931 698  
Since 1 June cooling degree days 423 321  
Growing Degree Days 40 (Base 50)    
Moisture  
Dew Point 45 °F    
Average Humidity 24    
Maximum Humidity 36    
Minimum Humidity 12    
Precipitation  
Precipitation T in 0.04 in 1.13 in (1958)
Month to date precipitation 0.12 0.52  
Year to date precipitation 1.01 2.34  
Snow  
Snow 0.00 in - - ()
Month to date snowfall 0.0  
Since 1 June snowfall 0.0  
Since 1 July snowfall 3.1  
Snow Depth 0.00 in    
Sea Level Pressure  
Sea Level Pressure 29.72 in    
Wind  
Wind Speed 13 mph (South)    
Max Wind Speed 35 mph    
Max Gust Speed 44 mph    
Visibility 10 miles    
Events Rain , Thunderstorm    
T = Trace of Precipitation, MM = Missing Value Source: NWS Daily Summary

Daily Weather History Graph

Daily Weather History Graph

Search for Another Location

Airport:

Trip Planner

Search our weather history database for the weather conditions in past years. The results will help you decide how hot, cold, wet, or windy it might be!

Date:

Astronomy

Jun. 20, 2013 Rise Set
Actual Time 6:00 AM MDT 8:14 PM MDT
Civil Twilight 5:32 AM MDT 8:42 PM MDT
Nautical Twilight 4:57 AM MDT 9:16 PM MDT
Astronomical Twilight 4:20 AM MDT 9:54 PM MDT
Moon 5:25 PM MDT (6/20) 3:21 AM MDT (6/20)
Length of Visible Light 15h 10m
Length of Day
14h 13m
Waxing Gibbous, 89% of the Moon is Illuminated
Jun 20
Waxing Gibbous
Jun 23
Full
Jun 29
Last Quarter
Jul 8
New
Jul 15
First Quarter

Hourly Weather History & Observations

Time (MDT) Temp. Dew Point Humidity Pressure Visibility Wind Dir Wind Speed Gust Speed Precip Events Conditions
12:51 AM 87.1 °F 48.0 °F 26% 29.67 in 5.0 mi SSE 19.6 mph 25.3 mph N/A   Widespread Dust
1:51 AM 84.0 °F 48.9 °F 29% 29.69 in 7.0 mi SSE 11.5 mph - 0.00 in   Mostly Cloudy
2:51 AM 82.9 °F 48.0 °F 29% 29.68 in 7.0 mi SE 9.2 mph - N/A   Mostly Cloudy
3:51 AM 82.0 °F 48.9 °F 31% 29.68 in 10.0 mi SSE 12.7 mph - N/A   Mostly Cloudy
4:51 AM 81.0 °F 48.0 °F 31% 29.69 in 10.0 mi SSE 12.7 mph - N/A   Scattered Clouds
5:51 AM 79.0 °F 48.9 °F 35% 29.70 in 10.0 mi SSE 12.7 mph - N/A   Partly Cloudy
6:51 AM 79.0 °F 48.9 °F 35% 29.73 in 10.0 mi SSE 8.1 mph - N/A   Scattered Clouds
7:51 AM 81.0 °F 50.0 °F 34% 29.75 in 10.0 mi South 6.9 mph - N/A   Scattered Clouds
8:51 AM 84.0 °F 50.0 °F 31% 29.76 in 10.0 mi South 8.1 mph - N/A   Partly Cloudy
9:51 AM 89.1 °F 48.0 °F 24% 29.75 in 10.0 mi South 10.4 mph - N/A   Scattered Clouds
10:51 AM 91.9 °F 45.0 °F 20% 29.74 in 10.0 mi Variable 5.8 mph - N/A   Partly Cloudy
11:51 AM 95.0 °F 39.9 °F 15% 29.73 in 10.0 mi SSE 4.6 mph - N/A   Partly Cloudy
12:51 PM 98.1 °F 39.9 °F 13% 29.70 in 10.0 mi Variable 6.9 mph - N/A   Partly Cloudy
1:51 PM 99.0 °F 39.0 °F 13% 29.68 in 10.0 mi Variable 3.5 mph - N/A   Scattered Clouds
2:51 PM 99.0 °F 37.9 °F 12% 29.65 in 10.0 mi Variable 5.8 mph 16.1 mph N/A   Scattered Clouds
3:51 PM 99.0 °F 37.9 °F 12% 29.63 in 10.0 mi SSW 8.1 mph 18.4 mph N/A   Mostly Cloudy
4:34 PM 96.8 °F 41.0 °F 15% 29.89 in 10.0 mi SW 26.5 mph 36.8 mph N/A Thunderstorm Thunderstorm
4:51 PM 95.0 °F 37.9 °F 14% 29.67 in 10.0 mi South 31.1 mph 40.3 mph 0.00 in Rain Light Rain
5:25 PM 96.8 °F 33.8 °F 11% 29.87 in 10.0 mi West 13.8 mph 31.1 mph 0.00 in   Mostly Cloudy
5:51 PM 99.0 °F 34.0 °F 10% 29.62 in 10.0 mi WSW 12.7 mph 20.7 mph 0.00 in   Mostly Cloudy
6:51 PM 96.1 °F 39.9 °F 14% 29.64 in 10.0 mi West 28.8 mph 38.0 mph 0.00 in Rain Light Rain
7:11 PM 93.2 °F 41.0 °F 16% 29.90 in 10.0 mi SE 11.5 mph 17.3 mph 0.00 in   Mostly Cloudy
7:51 PM 89.1 °F 46.9 °F 23% 29.67 in 8.0 mi SSE 15.0 mph 25.3 mph 0.00 in   Mostly Cloudy
8:51 PM 84.0 °F 50.0 °F 31% 29.69 in 10.0 mi SSE 25.3 mph 32.2 mph N/A   Mostly Cloudy
9:51 PM 82.9 °F 50.0 °F 32% 29.72 in 10.0 mi SSE 17.3 mph - N/A   Mostly Cloudy
10:51 PM 82.0 °F 51.1 °F 34% 29.75 in 10.0 mi SSE 21.9 mph 26.5 mph N/A   Mostly Cloudy
11:51 PM 80.1 °F 52.0 °F 38% 29.77 in 10.0 mi SSE 20.7 mph 28.8 mph N/A   Scattered Clouds